Other Public Products
Issued by NWS Grand Forks, ND

Home | Current Version | Previous Version | Graphics & Text | Print | Product List | Glossary On
Versions: 1 2 3 4 5 6 7 8 9 10 11 12 13 14 15 16 17 18 19 20 21 22 23 24 25 26 27 28 29 30 31 32 33 34 35 36 37 38 39 40 41 42 43 44 45 46 47 48 49 50
598
FPUS83 KFGF 250310
OPUFGF
PRAIRIE TO PINES WEATHER ROUNDUP
NATIONAL WEATHER SERVICE EASTERN NORTH DAKOTA/GRAND FORKS ND
900 PM CST FRI NOV 24 2017

 **SATELLITE DATA USED TO AUGMENT SKY COVER AT AUTOMATED STATIONS**
 *****  WEATHER ACROSS EASTERN NORTH DAKOTA  *****

CITY           SKY/WX    TMP DP  RH WIND       PRES   REMARKS
GRAND FORKS    FAIR      38  32  79 NW17G28   29.73R
GRND FORKS AFB FAIR      37  31  77 NW14      29.74R
GRND FORKS NWS   N/A     36 N/A N/A N15         N/A
BUXTON         NOT AVBL
DEVILS LAKE    FAIR      34  31  88 W13       29.79R WCI  25
FARGO          FAIR      40  32  73 NW17      29.76R
WAHPETON ARPT  NOT AVBL
$$

 *****  WEATHER ACROSS CENTRAL AND WESTERN NORTH DAKOTA  *****

CITY           SKY/WX    TMP DP  RH WIND       PRES   REMARKS
JAMESTOWN      FAIR      38  31  76 W10       29.80R
BISMARCK       FAIR      41  30  65 W6        29.86R
MINOT          FAIR      37  30  75 W12       29.82R
MINOT AFB      FAIR      35  29  81 NW9       29.81R
GARRISON         N/A     36  30  79 W7        29.83R
WILLISTON      FAIR      38  28  67 W12       29.86R
DICKINSON      FAIR      35  27  72 W10       29.88R
HETTINGER      FAIR      30  25  81 NW9       29.94R WCI  22
$$

 *****  OTHER OBSERVATIONS NORTHEAST NORTH DAKOTA  *****

CITY           SKY/WX    TMP DP  RH WIND       PRES   REMARKS
WALHALLA       FAIR      28  28 100 N15       29.78R WCI  17
LANGDON        FAIR      32  32 100 NW16      29.73R WCI  21
CAVALIER       MOCLDY    28  23  80 N15G21    29.77R WCI  17
GRAFTON        FAIR      30  27  86 N14       29.78R WCI  20
CANDO          FAIR      30  30 100 NW9       29.79R WCI  22
FORT TOTTEN      N/A     36  32  84 NW7       29.95S
ROLLA          FAIR      34  28  80 NW21      29.77R WCI  22
RUGBY          FAIR      34  32  93 NW12      29.79R
 ***** THE ABOVE OBSERVATIONS ARE NON NWS ARE NOT QUALITY
        CONTROLLED AND MAY MIS-REPORT RAIN FOR SNOW...
$$

 *****  OTHER OBSERVATIONS SOUTHEAST NORTH DAKOTA *****

CITY           SKY/WX    TMP DP  RH WIND       PRES   REMARKS
COOPERSTOWN    FAIR      36  32  87 W13       29.78R
VALLEY CITY    FAIR      36  34  93 NW12      29.80R
OAKES            N/A     37  34  87 NW10      29.83R
GWINNER          N/A     41  32  70 W17       29.80S
SHEYENNE NWR     N/A     40  32  74 NW12      29.95S
BUFFALO        NOT AVBL
WYNDMERE       NOT AVBL
 ***** THE ABOVE OBSERVATIONS ARE NON NWS ARE NOT QUALITY
       CONTROLLED AND MAY MIS-REPORT RAIN FOR SNOW...
$$

  *****  WEATHER ACROSS NORTHERN MINNESOTA  *****

CITY           SKY/WX    TMP DP  RH WIND       PRES   REMARKS
FLAG ISLAND    CLOUDY    27  18  69 NW33      29.65R WCI   9
WARROAD        CLOUDY    30  23  74 NW20G29   29.67R WCI  18
ROSEAU         CLOUDY    32  25  74 NW15G22   29.68R WCI  22
HALLOCK        CLOUDY    30  25  80 N20G31    29.74R WCI  18
THF RVR FALLS  CLOUDY    34  28  79 NW20      29.72R WCI  23
HALSTAD        NOT AVBL
FOSSTON        CLOUDY    34  28  80 NW8       29.70R
BAUDETTE       CLOUDY    31  23  72 NW23G35   29.62R WCI  18
WASKISH        CLOUDY    36  30  80 W14G23    29.62R
CROOKSTON      FAIR      36  30  80 NW17      29.73R
$$
  *****  WEATHER ACROSS CENTRAL AND WEST MINNESOTA  *****

CITY           SKY/WX    TMP DP  RH WIND       PRES   REMARKS
BEMIDJI        FAIR      35  30  83 NW17G24   29.65R WCI  24
PARK RAPIDS    FAIR      38  32  79 NW17G28   29.67R
WADENA         FAIR      39  32  75 NW15      29.70R
DETROIT LAKES  FAIR      36  34  93 NW16      29.73R
MOORHEAD       FAIR      39  30  70 NW20      29.77R
FERGUS FALLS   FAIR      36  30  80 NW10      29.78R
ELBOW LAKE     FAIR      37  33  84 NW13G21   29.76R
MORRIS MN      FAIR      39  34  81 W15       29.76R
STAPLES        FAIR      36  32  87 W13G20    29.68R
WHEATON        FAIR      43  34  70 W16G24    29.80R
$$
  *****  WEATHER ELSEWHERE ACROSS MINNESOTA  *****

CITY           SKY/WX    TMP DP  RH WIND       PRES   REMARKS
DULUTH         CLOUDY    37  33  85 W17G23    29.56R
INTRNTL FALLS  CLOUDY    34  27  75 NW15G25   29.55R WCI  24
ELY            CLOUDY    36  28  75 W9        29.50R
CLOQUET        CLOUDY    37  32  81 W12G20    29.59R
BRAINERD       FAIR      40  32  73 W10       29.66R
HIBBING        CLOUDY    37  29  72 W10       29.56R
ALEXANDRIA     FAIR      39  33  79 NW13      29.74R
SAINT CLOUD    FAIR      41  33  73 W16       29.69R
MINNEAPOLIS    FAIR      45  35  68 NW17G26   29.70R
$$

  *****  WEATHER ACROSS SOUTH DAKOTA  *****

CITY           SKY/WX    TMP DP  RH WIND       PRES   REMARKS
SIOUX FALLS    FAIR      40  33  76 NW8       29.86R
BROOKINGS      FAIR      40  33  76 NW13      29.85R
WATERTOWN      FAIR      40  34  79 NW14      29.83R
HURON          FAIR      41  34  76 NW12      29.88R
SISSETON         N/A     46  33  60 NW22      29.79R
ABERDEEN       FAIR      42  33  70 W12       29.87R
MITCHELL       FAIR      37  31  78 NW10      29.89R
PIERRE         FAIR      39  34  82 NW10      29.93R
MOBRIDGE       FAIR      36  29  75 W3        29.87R
RAPID CITY     FAIR      35  25  66 NW9       29.99R
$$

  *****  SOME WEATHER IN NEARBY STATES *****

CITY           SKY/WX    TMP DP  RH WIND       PRES   REMARKS
GLASGOW MT     FAIR      34  26  72 W7        29.89R
GREAT FALLS MT FAIR      36  21  54 W16       29.95S
CHEYENNE WY    FAIR      35  32  88 NW5       30.05R
SCOTTSBLUFF NE FAIR      34  21  59 NW6       30.02R
OMAHA NE       FAIR      45  35  68 CALM      29.88R
DES MOINES IA  FAIR      52  38  58 NW17      29.79R
DAVENPORT IA   CLOUDY    52  41  66 W14       29.63R
CHICAGO IL     CLOUDY    54  40  59 SW9       29.50R
EAU CLAIRE WI  FAIR      42  39  89 W10       29.63R
LA CROSSE WI   FAIR      48  42  80 NW15      29.63R
$$

  *****  SOME NATIONAL WEATHER *****

CITY           SKY/WX    TMP DP  RH WIND       PRES   REMARKS
LA GUARDIA NY  FAIR      47  32  56 SW9       29.95F
RALEIGH NC     FAIR      36  29  75 CALM      29.97F
ATLANTA GA     FAIR      49  44  83 CALM      29.98S
NEW ORLEANS LA FAIR      48  41  76 SW3       30.00R
OKLAHOMA CITY  MOCLDY    55  36  48 SE9       29.80R
ALBUQUERQUE NM FAIR      56  23  27 CALM      30.06R
SALT LAKE CITY MOCLDY    50  41  71 NW6       30.12R
LOS ANGELES CA FAIR      70  52  52 CALM      29.88R
BOISE ID       FAIR      40  30  67 SE7       30.14R
SEATTLE WA     CLOUDY    50  42  74 S6        30.07S
$$

*** WEATHER ACROSS MANITOBA...SASKATCHEWAN AND ONTARIO ***
                ***ONTARIO***

CITY           SKY/WX    TMP DP  RH WIND       PRES   REMARKS
GERALDTON      LGT SNOW  32  28  86 NW8       29.30R WCI  25
THUNDER BAY    CLOUDY    39  27  60 W14G22    29.40R
SIOUX LOOKOUT  FLURRIES  23  18  80 NW18G31   29.49R WCI   9
TORONTO        MOCLDY    50  28  43 SW17G25   29.58F
BIG TROUT LK   FLURRIES   7   3  85 NW10G18   29.46R WCI  -8
PICKLE LAKE    NOT AVBL
DRYDEN         FLURRIES  23  16  74 NW18G25   29.52R WCI   9
KENORA         FLURRIES  19  10  68 NW21G29   29.61R WCI   3
$$
                *** MANITOBA***

CITY           SKY/WX    TMP DP  RH WIND       PRES   REMARKS
BRANDON        CLEAR     25  16  68 NW14G20   29.79R WCI  13
DAUPHIN        CLEAR     16  10  79 NE5       29.84R WCI   9
ISLAND LAKE    NOT AVBL
PILOT MOUND      N/A     28  23  80 N13         N/A  WCI  18
THE PAS        CLEAR      3  -2  78 NW6       29.82R WCI  -8
THOMPSON       CLOUDY    -2  -8  78 W12       29.72R WCI -20
WINNIPEG       PTCLDY    19  10  68 N20       29.78R WCI   4
LYNN LAKE      CLEAR     -6  -9  84 W7        29.73R WCI -20
CHURCHILL      LGT SNOW   9   5  85 NW20      29.58R BLWGSNOWWCI -11
$$
                ***SASKATCHEWAN***

CITY           SKY/WX    TMP DP  RH WIND       PRES   REMARKS
ESTEVAN        CLEAR     27  25  93 W3        29.83R
KINDERSLEY     PTCLDY    27  23  86 SW5       29.83R WCI  21
LLOYDMINSTER   PTCLDY    25  23  93 SW9       29.76S WCI  15
PRINCE ALBERT  CLOUDY    21  12  68 NW5       29.84R WCI  15
REGINA         CLEAR     30  28  93 W7        29.81R WCI  23
YORKTON        PTCLDY    16  10  79 N5        29.80R WCI   9
N. BATTLEFORD  CLEAR     19  18  93 NW7       29.83  WC



USA.gov is the U.S. government's official web portal to all federal, state and local government web resources and services.